Location: Bagnara
(41.0500°N, 14.7833°E)
Time: 09:33:56
(UTC+00:00)

FALCON 9 DEB - Visible Passes

Search period start: 28 October 2021 00:00
Search period end: 07 November 2021 00:00
Orbit: 352 x 362 km, 53.0° (Epoch: 27 October)

Date Brightness Start Highest point End Pass type
(mag) Time Alt. Az. Time Alt. Az. Time Alt. Az.
28 Oct 3.4 17:01:33 10° WSW 17:04:25 49° NW 17:06:32 16° NE visible
29 Oct 4.9 17:30:24 10° WNW 17:32:40 20° NNW 17:33:38 17° N visible
30 Oct 3.7 16:22:17 10° WSW 16:25:07 41° NNW 16:27:57 10° NE visible
30 Oct 5.8 18:00:01 10° NW 18:00:35 11° NNW 18:00:35 11° NNW visible
31 Oct 5.1 16:51:06 10° WNW 16:53:13 18° NNW 16:55:21 10° NNE visible
01 Nov 5.5 17:20:41 10° NNW 17:21:28 11° NNW 17:22:15 10° N visible
03 Nov 5.5 16:41:08 10° NNW 16:41:33 10° N 16:41:57 10° N visible
